Temp_Advection
nan nan nan nan nan nan nan nan nan nan nan nan nan nan nan nan nan nan nan nan nan nan nan nan nan nan nan nan nan nan nan nan nan nan nan nan nan nan nan nan nan nan nan nan nan nan nan nan nan
nan 0 0 -0 -1 0 -0 -0 0 0 -0 -0 -0 -0 -0 -0 0 -0 -0 -0 -0 -0 -0 -0 -0 -0 -0 -0 -0 -0 -0 0 0 0 -0 -0 -0 -0 -0 0 0 0 -0 -0 0 -0 -0 -0 nan
nan -0 -0 -1 0 0 -0 -0 -0 -1 0 -0 -0 -0 -0 -0 -0 -0 -0 0 0 0 -0 -0 -0 -0 -0 -0 -0 -0 -0 -0 -0 -0 -0 -0 -0 -0 -0 -0 -0 -0 -0 -0 -0 -0 -0 -0 nan
nan -0 -0 -0 0 -0 -0 -0 -0 -0 -0 -0 -1 -0 0 -0 -0 -0 -0 0 0 0 0 -0 -0 -0 -0 -0 -0 -0 -0 -0 -0 -0 -0 -0 -0 0 0 0 0 0 -0 -0 -0 -0 -0 -0 nan
nan -0 -0 0 -0 -0 -0 -0 -0 -0 -0 0 -0 -0 0 0 0 0 0 0 0 0 0 0 0 0 0 -0 -0 0 0 0 0 0 0 0 0 0 0 0 0 0 0 0 0 -0 -0 -0 nan
nan -0 -0 -0 -0 -0 -0 0 -1 -1 -0 -0 -0 0 0 1 0 0 0 0 0 0 0 0 0 0 0 0 0 0 0 0 0 0 0 0 0 0 0 0 0 0 0 0 0 0 -0 -0 nan
nan -0 -0 -0 -0 -0 -0 -0 -0 -1 -0 0 -1 -0 0 0 0 0 0 1 1 1 0 0 0 0 0 0 0 0 0 0 0 0 0 0 0 0 0 0 -0 -0 -0 -0 -0 -0 -0 -0 nan
nan -0 0 0 0 -0 -0 -0 0 -1 -0 -0 -0 -0 0 0 -0 -0 -0 -0 0 0 -0 0 0 0 0 0 0 0 0 0 0 0 0 0 0 0 0 -0 -0 -0 -0 -0 -0 -0 -0 -0 nan
nan -0 -0 -0 0 -0 0 -0 -0 -1 -1 0 0 -0 -1 -0 -0 -0 -0 0 -0 0 -0 -0 0 0 0 0 0 0 0 0 0 0 0 0 0 0 0 0 0 0 -0 -0 0 0 -0 -0 nan
nan -0 -1 -0 -0 -0 -0 0 -0 -0 -1 -0 0 -0 -0 0 0 -0 -0 -1 -0 0 0 0 0 -0 0 -0 -0 0 -0 -0 0 0 0 0 0 0 0 0 0 -0 -0 0 0 0 0 -0 nan
nan -0 -0 -0 -0 -0 -0 0 -0 -0 -0 -1 -1 -1 -1 0 1 -0 -0 -1 -0 -0 0 0 1 0 -1 -0 0 0 -0 -0 0 0 0 1 0 0 0 0 0 0 -0 0 0 0 -0 -0 nan
nan -0 0 -0 -0 0 -0 -0 -0 -0 -0 -0 -1 -1 -0 -0 1 1 0 0 0 0 1 1 1 -0 -0 0 0 -0 -0 -0 -0 -0 0 0 0 0 -0 -0 0 1 0 -1 -1 -0 0 0 nan
nan -0 -1 -1 -0 -0 -0 0 -0 -0 -0 0 0 0 1 1 1 1 1 1 1 1 1 2 0 -1 0 1 1 -0 -0 0 -0 -0 -0 0 0 -0 0 -0 -1 0 1 1 -0 -0 0 -0 nan
nan -1 -1 -1 -0 0 0 -0 -0 0 -1 0 2 1 1 2 1 1 1 1 1 1 1 0 -0 0 1 0 0 1 0 0 -0 -0 0 -0 0 -0 -0 -0 -1 -0 -0 0 0 0 -0 -0 nan
nan 0 -1 -1 -0 -0 0 0 -0 0 -2 -3 -0 2 2 2 1 1 1 0 0 0 0 -0 -0 0 0 -0 0 0 0 0 -0 -0 0 -0 -0 -0 -0 -0 -1 -1 -1 -0 -0 -0 -0 -0 nan
nan -0 0 -1 -0 -0 0 0 -1 0 -3 -3 -0 -0 0 1 1 1 0 0 0 0 0 -0 -0 0 0 -0 -0 -0 -0 -0 -0 -0 -0 -0 -0 -0 -0 -0 -0 -0 -0 -1 -1 -1 -1 -0 nan
nan -0 -0 -0 0 -0 0 -0 -0 -1 -4 -2 0 0 -1 -0 0 0 0 0 0 0 0 0 -0 -0 -0 -0 -0 -0 -0 -0 -0 -0 -0 -0 -0 -0 -0 -0 -0 -0 -0 -0 -0 -1 -1 -1 nan
nan 0 -0 -0 -0 -0 -0 0 -0 -0 -4 -2 -0 0 -0 -1 -0 0 0 -0 0 0 0 -0 -0 -0 0 0 -0 -0 -0 -0 -0 -0 -0 -0 -0 -0 -0 -1 -1 -1 -1 -0 -0 -1 -0 -0 nan
nan 0 0 -0 -0 0 -0 0 -0 -0 -2 -2 -1 0 1 0 -1 -0 0 0 -0 -0 -0 0 0 0 0 -0 -0 -0 -0 -0 -0 -0 -0 -0 -0 -1 -1 -1 -1 -1 -1 -0 -0 -1 -1 -0 nan
nan 0 0 -0 -0 0 -0 -0 -0 -0 -0 -1 -3 -1 -1 1 1 -1 -0 -0 -0 -0 -0 -0 -0 -0 0 -0 0 0 -0 -0 -0 -0 -0 -0 -1 -1 -1 -1 -1 -1 -1 -1 -0 -1 -1 -0 nan
nan 0 0 -0 -0 -0 -0 -0 -0 -0 -1 -1 -0 -0 -0 -1 -0 -0 -0 -0 -0 -0 -0 0 -0 -0 0 0 0 0 0 0 -0 -0 -0 -0 -1 -1 -1 -1 -1 -1 -1 -1 -1 -1 -1 -1 nan
nan -0 0 0 -0 -0 -0 0 -0 -1 -1 -0 0 0 -0 -0 -0 -0 -0 -0 -0 0 0 0 0 -0 -0 -0 0 0 0 -0 -0 -0 -0 -0 -0 -1 -1 -1 -1 -0 -0 -0 -0 -0 -0 -0 nan
nan -0 -0 0 0 -0 -0 -0 0 -0 -1 -0 1 0 0 -0 -0 -0 -0 -0 -0 -0 -0 -0 -0 -0 -0 -0 -0 0 0 0 -0 -0 -0 -0 -1 -1 -1 -1 -1 -1 -1 -1 -1 -0 -0 -0 nan
nan -0 -0 -0 -0 -0 0 -0 0 0 -0 0 0 0 -0 -0 -0 -0 -0 -0 -0 -0 -0 0 0 0 -0 -0 -0 -0 -0 -0 -0 -0 -0 -0 -0 -0 -0 -0 -1 -1 -1 -1 -1 -1 -1 -0 nan
nan -1 -0 -0 -0 -0 0 -0 0 -0 -0 -0 -0 -0 0 1 0 -0 -0 -0 -0 0 0 0 0 0 -0 -0 -0 -0 -0 -0 -0 -0 -0 -0 -0 -0 -0 -0 -0 -1 -1 -1 -1 -1 -1 -1 nan
nan -0 -0 -0 0 -0 -0 -0 -0 -0 -0 -0 -0 -0 0 1 0 0 -0 -0 -0 -0 0 1 0 -0 -0 -0 -0 -0 -0 -0 -0 -0 -0 -0 -0 -0 -0 -0 0 -0 -0 -0 -0 -0 -1 -0 nan
nan -0 -0 -0 0 -0 0 0 -0 -0 -0 0 0 0 1 1 0 0 -0 -0 -0 -0 0 1 0 0 0 0 0 0 0 -0 -0 -0 -0 -0 -0 -0 -0 -0 -0 -0 -0 -0 -0 0 -0 -1 nan
nan 0 -0 -0 0 0 0 0 0 -0 0 -0 -0 0 1 1 0 0 -0 -0 -0 -0 0 0 0 0 0 0 0 0 0 0 -0 -0 -0 -0 -0 -0 -0 -0 -0 -0 -1 -1 -1 -1 -1 -1 nan
nan -0 -0 -0 -0 0 0 -0 -0 0 -0 -0 -0 -0 0 0 0 0 -0 -0 -0 -0 -0 -0 0 0 0 0 0 0 -0 -0 -0 -0 -0 -1 -0 -1 -1 -1 -1 -1 -1 -1 -1 -1 -1 -1 nan
nan nan nan nan nan nan nan nan nan nan nan nan nan nan nan nan nan nan nan nan nan nan nan nan nan nan nan nan nan nan nan nan nan nan nan nan nan nan nan nan nan nan nan nan nan nan nan nan nan
Wind_Speed
5 5 12 6 4 5 5 5 3 5 3 9 14 11 11 7 2 4 17 24 23 22 21 20 20 17 16 14 13 12 12 11 12 12 12 12 12 12 12 12 11 10 8 7 6 6 6 6 7
3 4 6 2 4 4 6 4 7 10 17 23 16 13 9 3 8 13 22 16 23 20 19 20 19 18 18 15 12 10 10 10 10 9 9 9 9 8 8 8 8 7 6 5 5 5 5 5 6
3 6 3 4 3 2 3 4 5 24 23 15 7 13 6 5 11 19 17 22 22 19 19 19 19 18 17 15 12 11 10 9 8 7 7 6 6 6 5 5 5 4 4 3 3 3 3 3 5
9 3 4 4 3 6 5 5 4 6 10 10 22 6 7 11 8 8 17 18 20 19 18 17 16 16 15 13 11 11 11 9 7 7 5 4 3 2 2 2 2 1 1 1 1 1 1 1 2
8 3 4 2 5 5 3 6 3 5 6 11 5 6 8 12 10 14 17 12 16 19 18 14 14 15 14 13 13 12 11 10 9 8 6 5 4 3 3 3 3 2 2 2 2 2 1 1 1
3 2 4 3 4 6 4 9 16 10 8 8 12 10 7 18 13 19 19 14 15 15 14 14 13 13 13 13 12 11 10 8 8 7 6 5 5 5 6 6 5 5 5 6 6 5 5 4 4
5 4 3 3 4 5 5 9 6 10 10 5 17 5 15 20 20 22 20 19 18 16 14 10 10 11 12 12 12 10 9 8 7 5 5 5 5 6 8 8 8 8 9 9 9 9 9 8 8
2 4 2 3 3 2 9 7 5 13 3 20 9 6 9 16 20 22 23 23 19 15 11 3 4 6 7 8 7 7 7 7 7 6 6 6 6 7 9 10 10 11 12 12 12 11 12 12 12
6 3 1 3 2 4 8 8 11 14 17 4 4 6 22 27 24 24 24 21 17 15 11 5 4 6 6 6 6 8 9 8 8 9 10 11 10 11 11 12 11 14 15 14 14 13 14 14 15
3 3 5 4 3 2 7 7 9 6 15 7 8 13 31 31 27 26 23 27 24 22 13 4 9 11 11 9 10 10 10 11 10 11 13 14 14 14 15 15 14 16 16 14 16 15 13 15 16
4 5 3 7 4 1 2 10 11 5 4 15 24 36 32 31 28 25 21 21 23 9 18 19 23 14 14 9 10 10 11 8 9 12 15 17 17 17 15 17 19 16 15 13 15 13 13 11 13
5 5 5 8 5 2 2 4 9 1 2 11 20 38 34 33 29 24 21 20 16 7 12 25 18 15 18 14 12 13 16 15 10 12 13 17 20 21 24 25 22 21 18 19 19 18 18 15 18
2 7 23 16 15 13 10 7 7 11 5 9 19 24 28 30 27 23 18 15 13 18 21 25 16 15 14 19 15 13 11 13 14 11 12 15 19 22 20 17 17 24 21 24 19 20 18 20 21
12 21 19 16 22 17 8 8 5 7 11 24 25 25 26 25 23 19 21 20 16 16 12 10 12 12 12 14 14 13 11 10 6 7 5 4 4 5 10 10 11 10 11 13 14 14 18 19 19
12 8 11 15 17 6 13 6 6 6 26 34 37 34 30 25 23 23 18 10 8 10 7 6 6 5 4 5 7 5 2 1 3 8 6 7 12 11 12 14 15 15 15 14 12 12 13 14 14
4 4 4 9 2 5 9 7 11 11 32 31 35 33 30 24 22 19 17 14 9 6 7 7 6 5 3 3 2 2 3 3 5 8 11 11 10 10 12 15 17 18 17 17 17 17 14 13 13
5 2 3 9 10 4 2 4 7 8 37 29 30 34 32 27 21 17 12 11 10 8 8 7 5 4 3 1 1 1 2 4 7 7 7 9 12 14 18 20 22 23 23 23 21 18 19 20 20
2 3 4 3 6 7 8 6 7 4 32 31 33 34 29 26 19 15 9 8 7 6 5 5 3 3 2 0 2 2 3 3 3 4 7 11 15 17 20 23 25 25 23 21 19 20 18 20 22
5 1 3 4 5 5 2 5 4 16 33 29 28 33 31 26 18 8 7 9 8 8 6 5 3 3 1 0 2 2 3 3 2 4 8 12 14 18 23 24 25 24 23 22 21 21 20 20 23
1 2 6 6 6 3 2 4 3 3 18 28 31 29 30 27 23 13 5 9 9 8 6 5 4 2 1 2 2 4 5 3 1 8 10 11 14 20 25 25 22 21 21 19 19 20 20 18 18
3 2 4 6 7 2 4 4 8 7 15 18 20 25 26 25 23 15 10 9 8 8 8 8 6 4 2 3 5 7 3 1 7 7 8 11 18 23 29 28 22 20 21 22 22 21 21 22 20
3 3 4 4 3 1 5 1 12 11 15 17 14 15 17 17 16 15 8 7 6 6 8 9 8 8 6 4 2 3 2 5 6 7 9 13 17 22 28 28 25 23 22 21 21 21 21 21 23
6 3 1 2 3 2 2 5 2 5 13 8 14 12 12 9 9 8 6 5 4 2 5 6 8 8 6 7 4 4 5 5 5 8 12 18 20 25 27 28 25 23 24 23 21 20 20 20 21
1 2 4 3 3 2 3 6 3 2 7 1 9 16 14 17 18 16 11 6 2 3 8 10 8 6 5 9 5 5 6 6 11 14 17 19 18 23 23 26 26 27 26 25 24 24 23 23 22
5 5 3 3 3 4 1 6 3 5 8 10 10 13 17 20 17 14 13 12 8 1 8 11 10 5 6 8 6 6 5 9 11 15 17 22 23 24 20 22 25 25 24 24 24 24 25 25 25
1 6 4 2 0 2 5 4 3 2 21 18 17 20 19 18 16 13 10 7 6 5 5 12 8 5 5 3 3 5 4 5 9 14 17 21 20 17 15 23 24 24 24 25 24 24 27 30 29
2 2 3 4 3 3 2 2 4 3 6 16 13 22 20 19 15 11 8 7 7 7 7 11 7 5 5 5 5 4 2 8 13 18 20 21 19 17 18 23 26 27 28 30 30 29 26 30 32
3 1 3 3 3 3 2 3 4 8 7 8 16 21 22 19 15 12 10 9 10 12 10 7 7 10 9 7 5 4 9 12 15 19 22 24 24 25 26 26 28 30 30 31 31 32 32 30 27
3 2 4 3 4 4 1 5 5 15 12 10 20 23 24 20 15 12 11 10 9 7 6 7 8 8 7 5 6 10 14 17 19 21 22 23 23 23 24 25 26 27 28 29 30 31 31 29 26
3 1 3 4 3 1 4 5 4 8 15 24 23 26 24 20 16 12 10 8 5 2 1 1 1 3 6 9 12 15 17 18 19 19 20 21 22 23 25 26 28 28 28 28 29 28 24 29 32
Wind_Direction
17 329 327 345 44 55 297 280 280 178 50 146 153 137 137 126 139 177 152 165 177 168 163 163 164 159 155 147 137 127 126 120 119 121 124 128 131 130 131 131 131 129 122 113 101 95 97 99 98
29 324 340 1 77 44 297 279 114 125 133 117 104 109 59 81 113 136 155 169 170 163 163 163 162 160 158 154 141 132 131 131 124 120 121 124 123 123 121 121 120 115 109 103 101 100 98 99 104
350 339 12 80 90 111 280 280 233 152 148 118 85 83 68 106 131 136 150 159 164 164 162 162 161 162 162 158 153 146 139 130 117 106 102 105 114 116 110 103 99 102 101 97 90 84 86 99 115
354 26 59 69 325 267 217 246 232 118 112 85 116 79 91 177 165 180 165 163 171 164 161 160 162 166 167 163 158 149 142 137 129 119 116 109 100 111 118 122 125 117 96 78 65 60 74 100 129
3 51 53 16 269 254 251 259 76 41 109 120 139 140 111 150 177 164 158 160 181 161 159 158 157 169 172 169 160 155 154 154 155 155 154 165 180 202 216 220 216 226 242 250 255 258 263 261 229
54 60 44 323 269 277 281 18 76 83 117 112 106 115 104 144 149 144 143 150 170 160 156 156 156 161 168 167 167 165 166 169 174 178 183 201 220 236 254 259 266 270 276 277 274 272 270 266 260
123 90 225 272 275 337 322 330 40 112 135 124 135 116 139 131 150 154 157 151 149 151 161 166 169 169 172 174 172 171 175 180 191 210 220 221 248 263 271 275 277 277 276 274 275 277 279 275 266
266 107 3 332 345 330 340 15 43 82 117 142 122 165 155 138 150 164 158 146 146 142 143 149 185 202 197 190 182 183 189 196 206 222 237 252 263 271 276 280 277 276 274 274 275 275 274 272 270
269 60 314 267 353 274 357 13 4 105 137 133 222 187 130 148 160 157 157 148 133 120 116 151 259 247 235 220 219 210 212 224 232 241 247 244 244 251 255 260 264 275 262 264 266 267 272 274 271
146 120 223 206 249 247 333 5 347 5 78 109 138 123 138 154 170 161 162 136 128 108 78 331 286 255 238 221 227 238 239 238 245 254 261 267 264 263 269 271 272 269 272 252 251 253 259 268 273
299 185 236 306 254 145 353 318 346 20 32 149 141 138 151 155 166 167 161 155 156 169 252 182 219 252 255 259 262 266 276 287 286 295 310 299 301 296 279 275 271 271 277 267 260 258 250 258 263
333 306 345 321 347 266 214 275 299 201 118 137 153 152 163 172 173 179 178 178 174 214 198 191 204 217 268 277 280 294 311 313 326 326 330 318 308 310 292 293 287 286 273 282 274 264 255 258 268
25 331 332 311 305 313 299 274 265 289 312 146 154 167 167 170 172 171 175 172 173 180 181 194 205 220 234 249 259 270 265 270 275 288 289 293 312 299 281 277 296 300 285 283 283 269 258 260 256
318 317 312 312 302 300 295 281 281 265 83 109 124 132 156 163 157 165 161 156 175 187 186 189 212 231 240 248 255 263 272 265 273 242 241 306 239 333 349 347 354 344 331 322 309 294 287 286 280
310 313 326 304 276 253 295 303 249 272 126 109 109 112 120 132 144 145 152 168 165 164 183 231 265 269 261 264 253 226 173 329 49 58 80 68 67 71 42 14 10 3 357 349 343 335 321 306 292
326 40 347 292 321 275 148 281 281 160 123 110 112 118 120 121 129 129 127 127 133 137 115 92 84 89 86 78 130 76 49 43 53 69 78 73 52 34 19 11 2 354 340 327 318 318 319 317 318
360 266 285 334 36 5 96 262 326 130 119 112 107 112 111 118 125 119 113 114 107 93 81 76 77 67 51 50 327 305 14 58 85 80 55 38 25 18 13 10 3 354 342 328 313 312 312 309 303
296 348 326 295 317 19 343 287 353 63 118 128 124 118 114 111 119 123 113 104 95 78 73 75 82 103 130 171 68 62 73 67 60 52 26 19 16 18 14 9 2 355 346 336 324 316 316 315 311
225 8 291 275 310 33 32 0 18 115 121 134 132 129 124 111 122 92 110 100 98 114 118 124 136 125 148 12 26 357 334 356 47 27 13 17 22 13 9 4 359 354 347 344 339 331 326 325 326
235 284 295 284 297 164 9 349 127 123 150 141 133 126 121 131 119 123 122 93 94 100 101 111 128 110 244 289 286 279 303 312 322 355 7 15 12 7 3 358 356 352 345 343 341 338 337 339 349
271 217 269 269 323 311 127 40 360 31 76 96 107 116 121 119 119 123 113 98 90 84 67 56 45 38 334 284 273 276 270 208 347 358 5 10 2 3 3 357 355 351 346 346 346 343 339 334 336
237 259 259 288 42 306 74 258 26 42 55 59 85 102 117 126 124 113 119 119 105 77 33 12 12 22 12 1 291 233 254 322 340 359 9 358 356 359 360 357 347 340 342 343 341 340 337 333 328
230 332 296 264 321 65 359 86 287 19 47 30 59 111 115 110 102 104 107 116 119 24 3 343 344 346 11 17 346 296 298 313 342 353 347 346 351 352 349 345 338 330 331 332 333 333 333 332 329
213 340 345 16 95 350 189 126 244 210 144 239 75 78 70 98 97 94 96 121 161 7 339 315 309 305 8 15 18 349 330 344 346 337 341 339 340 343 337 331 334 329 326 326 328 329 327 325 323
61 62 343 356 30 224 112 68 195 178 175 175 148 97 111 112 112 101 88 82 79 276 271 266 268 295 359 359 355 353 345 351 350 338 334 334 331 337 339 331 328 330 329 327 325 324 323 322 318
134 158 160 186 249 275 7 120 238 284 191 174 142 129 124 121 111 100 76 51 49 45 214 242 250 344 347 345 11 22 11 332 321 324 326 327 332 331 324 319 316 318 320 319 316 315 318 318 314
324 70 185 129 354 103 167 35 331 74 138 170 142 137 130 119 115 102 83 45 17 18 171 202 205 214 166 140 163 180 252 304 315 319 323 328 326 324 324 315 315 313 312 310 307 304 305 302 300
141 178 61 12 161 207 216 196 214 210 202 146 141 145 133 130 124 111 92 79 88 96 117 155 163 159 166 171 196 270 300 310 317 319 321 322 319 317 315 311 307 306 307 307 308 307 309 311 308
15 26 57 105 129 156 197 251 219 202 194 170 160 148 144 139 131 115 104 110 102 105 115 112 127 155 188 234 284 302 308 316 321 323 324 326 327 328 328 326 324 321 319 316 313 311 312 315 312
108 88 123 119 205 115 146 270 282 206 194 149 153 156 151 145 137 128 125 119 124 98 84 29 333 305 316 316 314 316 317 321 327 337 340 341 340 338 336 333 331 329 328 327 325 324 324 312 310
Height
1531 1531 1530 1529 1539 1545 1549 1537 1521 1529 1526 1522 1524 1524 1525 1527 1530 1545 1534 1539 1542 1544 1546 1549 1550 1554 1557 1557 1557 1556 1557 1559 1559 1560 1559 1559 1559 1559 1558 1558 1558 1559 1559 1560 1561 1562 1563 1563 1563
1530 1531 1529 1529 1549 1563 1553 1527 1524 1522 1520 1520 1520 1522 1521 1529 1527 1530 1532 1538 1542 1544 1548 1549 1552 1553 1554 1556 1557 1558 1559 1560 1561 1561 1562 1561 1561 1561 1561 1561 1560 1560 1561 1561 1562 1562 1563 1565 1566
1531 1530 1531 1536 1554 1557 1550 1524 1519 1520 1516 1515 1522 1523 1525 1530 1531 1531 1535 1539 1543 1545 1549 1552 1552 1555 1556 1556 1557 1558 1559 1561 1563 1564 1565 1564 1564 1563 1563 1563 1563 1562 1562 1563 1563 1563 1564 1565 1566
1531 1532 1535 1545 1547 1539 1531 1523 1516 1516 1517 1516 1520 1524 1528 1528 1528 1534 1538 1541 1543 1546 1550 1553 1554 1556 1557 1558 1558 1558 1559 1561 1563 1563 1565 1565 1567 1566 1564 1564 1563 1563 1563 1563 1564 1564 1564 1565 1566
1531 1533 1545 1549 1544 1531 1522 1519 1514 1514 1515 1520 1522 1527 1529 1530 1531 1532 1539 1546 1547 1549 1552 1555 1555 1558 1559 1558 1558 1559 1560 1560 1561 1562 1564 1565 1566 1567 1566 1565 1563 1563 1563 1563 1563 1564 1564 1565 1566
1532 1534 1552 1558 1542 1528 1520 1515 1515 1516 1519 1520 1523 1527 1533 1532 1534 1537 1543 1548 1553 1554 1557 1557 1558 1559 1561 1561 1561 1560 1561 1563 1563 1563 1563 1566 1567 1567 1568 1566 1565 1564 1564 1563 1563 1564 1564 1564 1564
1531 1540 1549 1545 1541 1529 1523 1519 1516 1517 1520 1522 1522 1527 1533 1537 1537 1536 1542 1548 1551 1553 1557 1561 1562 1562 1562 1562 1561 1561 1562 1562 1563 1565 1565 1564 1566 1567 1568 1567 1566 1564 1564 1563 1563 1563 1563 1563 1563
1530 1532 1539 1539 1541 1535 1524 1519 1518 1517 1521 1521 1522 1523 1529 1535 1537 1537 1541 1547 1550 1554 1556 1562 1565 1566 1566 1565 1564 1562 1561 1560 1561 1563 1564 1564 1565 1566 1566 1566 1565 1564 1562 1562 1561 1560 1560 1560 1560
1532 1540 1548 1538 1534 1530 1524 1522 1518 1520 1518 1521 1521 1522 1529 1532 1534 1538 1541 1545 1548 1554 1552 1561 1565 1566 1566 1565 1564 1560 1559 1560 1560 1561 1563 1562 1562 1562 1563 1563 1563 1560 1559 1559 1558 1557 1557 1557 1556
1530 1543 1538 1530 1527 1527 1524 1524 1522 1518 1520 1522 1523 1525 1529 1531 1534 1536 1541 1545 1549 1554 1558 1561 1565 1566 1565 1563 1560 1560 1559 1557 1558 1560 1561 1562 1560 1558 1559 1560 1561 1558 1555 1554 1553 1552 1552 1552 1553
1530 1535 1528 1526 1525 1523 1525 1523 1523 1520 1521 1520 1523 1526 1529 1532 1535 1537 1541 1543 1543 1546 1548 1545 1560 1565 1564 1560 1559 1557 1557 1556 1556 1559 1562 1561 1561 1560 1560 1560 1559 1555 1552 1552 1550 1549 1548 1548 1548
1535 1527 1526 1527 1526 1524 1523 1523 1522 1521 1520 1518 1519 1522 1525 1529 1532 1536 1539 1542 1546 1548 1550 1549 1557 1556 1557 1555 1556 1557 1560 1558 1557 1557 1558 1560 1560 1558 1560 1557 1555 1553 1551 1549 1548 1547 1544 1542 1542
1530 1529 1526 1524 1524 1522 1522 1520 1522 1520 1520 1520 1521 1524 1527 1528 1532 1538 1541 1544 1546 1545 1546 1549 1554 1554 1555 1553 1552 1553 1553 1557 1559 1556 1554 1557 1556 1559 1557 1556 1550 1548 1547 1547 1547 1545 1541 1539 1537
1532 1528 1525 1522 1520 1520 1520 1520 1520 1520 1520 1520 1521 1526 1529 1533 1537 1539 1543 1545 1545 1547 1549 1552 1554 1554 1553 1553 1551 1552 1553 1553 1554 1553 1551 1553 1550 1557 1559 1558 1550 1548 1548 1547 1547 1543 1540 1537 1537
1531 1531 1524 1519 1516 1518 1519 1521 1519 1518 1517 1522 1526 1531 1536 1540 1543 1544 1547 1548 1550 1551 1552 1553 1553 1553 1554 1551 1549 1553 1553 1557 1555 1554 1551 1554 1554 1551 1555 1557 1552 1550 1548 1546 1544 1541 1539 1537 1535
1532 1533 1541 1518 1515 1514 1518 1532 1513 1514 1515 1526 1529 1534 1538 1544 1547 1549 1549 1551 1553 1554 1554 1553 1554 1554 1554 1553 1555 1556 1556 1557 1556 1556 1556 1557 1556 1553 1554 1553 1551 1548 1546 1543 1541 1539 1537 1535 1533
1540 1546 1537 1530 1518 1519 1520 1526 1513 1519 1518 1531 1535 1538 1540 1544 1550 1551 1553 1553 1553 1553 1554 1554 1554 1554 1554 1555 1557 1558 1557 1558 1558 1558 1558 1557 1556 1554 1554 1552 1549 1546 1543 1540 1538 1535 1533 1531 1528
1547 1543 1540 1541 1527 1523 1524 1523 1523 1519 1526 1531 1535 1538 1539 1547 1557 1555 1556 1555 1555 1555 1555 1555 1556 1556 1556 1558 1558 1558 1558 1559 1559 1559 1559 1557 1556 1554 1553 1550 1547 1544 1540 1538 1535 1532 1530 1527 1523
1536 1536 1540 1532 1526 1526 1529 1525 1526 1521 1525 1533 1535 1535 1536 1536 1550 1560 1559 1557 1558 1558 1558 1558 1558 1559 1559 1559 1559 1558 1558 1559 1559 1559 1558 1557 1557 1554 1551 1548 1545 1542 1538 1535 1532 1529 1527 1524 1520
1531 1535 1538 1530 1524 1525 1525 1526 1527 1525 1522 1524 1532 1537 1538 1546 1541 1553 1559 1556 1557 1559 1559 1558 1558 1558 1559 1559 1558 1558 1558 1559 1560 1559 1558 1557 1555 1553 1550 1547 1543 1541 1539 1535 1532 1529 1526 1524 1520
1531 1534 1534 1537 1525 1521 1525 1535 1536 1531 1532 1535 1537 1541 1545 1545 1547 1555 1556 1556 1557 1559 1558 1557 1558 1558 1558 1559 1558 1558 1559 1560 1559 1559 1558 1556 1554 1552 1549 1546 1543 1541 1538 1535 1532 1529 1527 1523 1521
1535 1525 1527 1529 1533 1544 1527 1558 1546 1542 1542 1543 1544 1547 1551 1553 1554 1554 1556 1556 1556 1557 1557 1558 1558 1558 1559 1559 1558 1559 1560 1560 1559 1559 1558 1556 1554 1551 1549 1546 1543 1541 1538 1535 1532 1529 1526 1523 1519
1531 1523 1525 1526 1533 1535 1535 1553 1555 1551 1553 1554 1551 1551 1551 1553 1553 1554 1557 1556 1555 1555 1555 1557 1558 1558 1559 1559 1559 1559 1560 1560 1559 1558 1557 1554 1552 1549 1547 1545 1542 1539 1536 1534 1531 1527 1525 1522 1518
1520 1523 1525 1527 1534 1553 1538 1546 1562 1553 1552 1553 1549 1547 1551 1550 1552 1553 1554 1555 1555 1555 1555 1557 1559 1559 1560 1559 1559 1559 1559 1559 1559 1557 1554 1552 1549 1547 1545 1543 1540 1537 1534 1531 1527 1524 1522 1519 1516
1521 1536 1555 1553 1558 1559 1537 1549 1554 1550 1549 1547 1548 1551 1555 1552 1551 1552 1552 1554 1554 1556 1556 1558 1558 1559 1560 1559 1559 1559 1558 1557 1556 1554 1551 1548 1545 1543 1542 1540 1537 1534 1531 1527 1524 1521 1518 1515 1512
1523 1534 1557 1558 1563 1554 1543 1561 1554 1544 1544 1549 1551 1552 1556 1555 1553 1554 1552 1551 1552 1553 1555 1556 1558 1559 1559 1559 1558 1558 1556 1555 1552 1551 1549 1546 1543 1540 1538 1536 1533 1530 1526 1523 1520 1517 1514 1511 1508
1524 1536 1526 1542 1546 1556 1557 1553 1545 1546 1547 1551 1554 1554 1556 1553 1554 1553 1553 1552 1551 1553 1552 1554 1556 1556 1557 1556 1555 1554 1553 1552 1550 1548 1545 1542 1540 1536 1534 1531 1528 1525 1522 1519 1515 1511 1508 1505 1502
1521 1524 1541 1551 1559 1559 1556 1558 1555 1548 1547 1549 1554 1555 1553 1553 1553 1553 1554 1554 1555 1554 1554 1554 1554 1553 1554 1554 1554 1552 1550 1549 1546 1544 1541 1539 1536 1532 1529 1526 1523 1519 1516 1512 1508 1504 1500 1497 1495
1530 1533 1536 1540 1554 1572 1578 1561 1534 1535 1538 1544 1548 1550 1551 1551 1552 1553 1554 1556 1556 1557 1556 1556 1555 1555 1555 1554 1553 1551 1549 1546 1544 1541 1538 1535 1532 1528 1525 1521 1518 1514 1510 1506 1502 1498 1495 1492 1487
1524 1530 1534 1561 1552 1565 1572 1561 1527 1527 1529 1537 1545 1549 1550 1550 1552 1553 1554 1555 1555 1556 1556 1555 1555 1554 1553 1552 1550 1548 1546 1543 1540 1537 1534 1531 1528 1526 1522 1518 1514 1509 1505 1500 1496 1492 1489 1484 1480